Weather in Stryzhavka

Ukraine / Vinnytsia Region     49°18′44″N   28°28′50″E
temp.,
°C
wind,
m/s
gust,
m/s
humid.,
%
clouds,
%
prec.,
mm/h
press.,
hPa
HPBL,
m
10 april, sat
sat1000:00+3s35585 0.0 1027108
03:00+2s34625 0.0 102780
06:00+1s35655 0.0 102697
09:00+5s47525 0.0 1026376
12:00+9s56375 0.0 10251488
15:00+11ssw55345 0.0 10241688
18:00+11s44375 0.0 10241603
21:00+7sse37535 0.0 1025164
11 april, sun
sun1100:00+5s37560 0.0 1026151
03:00+4s37580 0.0 1027135
06:00+3s34600 0.0 102776
09:00+7sse35520 0.0 1028257
12:00+11sse45370 0.0 10281253
15:00+13sse34320 0.0 10271492
18:00+13se44350 0.0 10261492
21:00+9se34490 0.0 1027107
12 april, mon
mon1200:00+7se23530 0.0 102757
03:00+5se24580 0.0 102658
06:00+5ese22600 0.0 102525
09:00+8e23490 0.0 1024217
12:00+13e22370 0.0 1023952
15:00+15e11340 0.0 10211312
18:00+15ene22360 0.0 10191307
21:00+11ese22510 0.0 102020
13 april, tue
tue1300:00+8se24710 0.0 102093
03:00+7ssw11740 0.0 102013
06:00+7se11725 0.0 102010
09:00+11se22600 0.0 1019211
12:00+15sse23456 0.0 1018960
15:00+17sse334436 0.0 10171714
18:00+16se445497 0.0 1016780
21:00+12se477890 0.0 1017314
14 april, wed
wed1400:00+10sse4882100 0.0 1016338
03:00+10sse4880100 0.0 1015380
06:00+9se4781100 0.0 1014314
09:00+9sse4874100 0.0 1014399
12:00+11sse6862100 0.0 1014656
15:00+13sse6854100 0.0 10131627
18:00+11se6877100 0.4 10131038
21:00+9se61083100 1.1 10131185